Location: Unspecified
(0.0000°N, 0.0000°E)
Time: 08:37:05
(UTC+00:00)

BEESAT 2 - Pass Details

Date: 12 December 2019
Orbit: 493 x 535 km, 64.9° (Epoch: 23 January)

Event Time Altitude Azimuth Distance (km) Brightness Sun altitude
Rises 19:29:42 0° 330° (NNW) 2,651 ? -22.0°
Reaches altitude 10° 19:31:55 10° 326° (NW) 1,759 ? -22.5°
Maximum altitude 19:35:46 52° 249° (WSW) 648 ? -23.3°
Drops below altitude 10° 19:39:35 10° 171° (S) 1,744 ? -24.2°
Sets 19:41:46 0° 166° (SSE) 2,625 ? -24.7°
